Terminal Aerodrome Forecast
Issued by NWS Mt. Holly, NJ

Home | Current Version | Previous Version | Text Only | Print | Product List | Glossary On
Versions: 1 2 3 4 5 6 7 8 9 10 11 12 13
000
FTUS41 KPHI 272340
TAFRDG
TAF
KRDG 272340Z 2800/2824 33010KT P6SM SCT040 BKN070
     FM281100 33015G25KT P6SM FEW050
     FM282200 32007KT P6SM SKC=

USA.gov is the U.S. government's official web portal to all federal, state and local government web resources and services.